CW1053 Weather Reports


time (UTC)temp
C
wind
direction
speed
KPH
gust
KPH
rain 1hr
cm
rain 24hr
cm
rain mn
cm
humidity
%
barometer
mb
20260505182012 27 240 3.2 8.0 0.00 0.00 0.00 36 1009.4
20260505181504 27 234 3.2 8.0 0.00 0.00 0.00 37 1009.4
20260505181004 27 259 3.2 8.0 0.00 0.00 0.00 36 1009.5
20260505180504 27 264 3.2 8.0 0.00 0.00 0.00 35 1009.5
20260505180007 27 277 3.2 9.7 0.00 0.00 0.00 38 1009.6
20260505175503 27 252 3.2 9.7 0.00 0.00 0.00 37 1009.5
20260505175003 27 251 1.6 9.7 0.00 0.00 0.00 39 1009.7
20260505174508 27 261 3.2 9.7 0.00 0.00 0.00 37 1009.7
20260505174006 27 268 3.2 8.0 0.00 0.00 0.00 38 1009.9
20260505173503 27 247 3.2 8.0 0.00 0.00 0.00 38 1009.8
20260505173016 26 263 1.6 8.0 0.00 0.00 0.00 40 1010.0
20260505172506 26 270 4.8 8.0 0.00 0.00 0.00 38 1010.0
20260505172010 26 269 3.2 8.0 0.00 0.00 0.00 40 1010.0
20260505171518 26 243 3.2 6.4 0.00 0.00 0.00 39 1010.1
20260505171010 26 241 3.2 6.4 0.00 0.00 0.00 40 1010.1
20260505170503 26 255 1.6 4.8 0.00 0.00 0.00 41 1010.0
20260505170004 26 259 1.6 9.7 0.00 0.00 0.00 39 1010.1
20260505165504 26 234 1.6 9.7 0.00 0.00 0.00 42 1010.2
20260505165002 26 259 3.2 6.4 0.00 0.00 0.00 40 1010.2
20260505164507 26 256 1.6 6.4 0.00 0.00 0.00 41 1010.3
20260505164003 26 255 1.6 9.7 0.00 0.00 0.00 41 1010.3
20260505163504 26 248 1.6 9.7 0.00 0.00 0.00 40 1010.3
20260505163012 26 269 3.2 8.0 0.00 0.00 0.00 40 1010.3
20260505162505 26 271 3.2 8.0 0.00 0.00 0.00 40 1010.6
20260505162006 26 264 1.6 6.4 0.00 0.00 0.00 42 1010.6
20260505161518 25 220 3.2 6.4 0.00 0.00 0.00 42 1010.6
20260505161005 25 251 3.2 6.4 0.00 0.00 0.00 41 1010.7
20260505160507 25 238 1.6 6.4 0.00 0.00 0.00 43 1010.8
20260505153013 25 257 1.6 6.4 0.00 0.00 0.00 42 1011.1
20260505152504 25 269 3.2 6.4 0.00 0.00 0.00 43 1011.0
20260505152006 25 259 3.2 6.4 0.00 0.00 0.00 44 1011.0
20260505151518 25 266 1.6 4.8 0.00 0.00 0.00 45 1010.9
20260505151007 25 264 1.6 4.8 0.00 0.00 0.00 46 1011.0
20260505150508 25 236 1.6 4.8 0.00 0.00 0.00 44 1011.0
20260505140504 22 249 3.2 8.0 0.00 0.00 0.00 48 1011.5
20260505125007 22 269 0.0 1.6 0.00 0.00 0.00 54 1011.7
20260505124520 21 269 0.0 3.2 0.00 0.00 0.00 60 1011.6
20260505124007 21 248 1.6 3.2 0.00 0.00 0.00 56 1011.7
20260505123510 21 274 0.0 1.6 0.00 0.00 0.00 60 1011.7
20260505123023 21 274 1.6 1.6 0.00 0.00 0.00 57 1011.8
20260505122507 21 274 0.0 3.2 0.00 0.00 0.00 61 1011.8
20260505122009 21 273 0.0 3.2 0.00 0.00 0.00 59 1011.8
20260505121526 21 300 0.0 1.6 0.00 0.00 0.00 60 1011.9
20260505121009 21 300 0.0 1.6 0.00 0.00 0.00 61 1011.6
20260505120511 21 300 0.0 1.6 0.00 0.00 0.00 56 1011.6
20260505120039 21 319 0.0 1.6 0.00 0.00 0.00 61 1011.6
20260505115510 21 319 0.0 1.6 0.00 0.00 0.00 62 1011.6
20260505115005 20 319 0.0 1.6 0.00 0.00 0.00 68 1011.7
20260505114515 18 319 0.0 1.6 0.00 0.00 0.00 70 1011.7
20260505114009 17 319 0.0 1.6 0.00 0.00 0.00 70 1011.6
20260505113509 17 295 0.0 1.6 0.00 0.00 0.00 71 1011.7
20260505113023 16 295 0.0 1.6 0.00 0.00 0.00 75 1011.7
20260505112511 16 295 0.0 1.6 0.00 0.00 0.00 75 1011.6
20260505112007 15 295 0.0 1.6 0.00 0.00 0.00 78 1011.7
20260505111530 14 295 0.0 1.6 0.00 0.00 0.00 79 1011.7
20260505111009 14 295 0.0 0.0 0.00 0.00 0.00 80 1011.7
20260505110510 14 295 0.0 1.6 0.00 0.00 0.00 79 1011.8
20260505102006 13 280 0.0 1.6 0.00 0.00 0.00 78 1011.6
20260505101526 14 275 0.0 1.6 0.00 0.00 0.00 78 1011.4
20260505101009 14 275 0.0 1.6 0.00 0.00 0.00 77 1011.2
20260505100509 14 275 0.0 1.6 0.00 0.00 0.00 77 1011.0
20260505100031 13 275 0.0 1.6 0.00 0.00 0.00 77 1010.8
20260505095507 13 275 0.0 1.6 0.00 0.00 0.00 77 1010.8
20260505095003 13 275 0.0 1.6 0.00 0.00 0.00 76 1010.8
20260505094515 14 275 0.0 1.6 0.00 0.00 0.00 76 1010.8
20260505094003 14 275 0.0 1.6 0.00 0.00 0.00 76 1010.7
20260505093507 14 275 0.0 1.6 0.00 0.00 0.00 75 1010.5
20260505093018 14 275 0.0 1.6 0.00 0.00 0.00 75 1010.5
20260505092509 14 275 0.0 1.6 0.00 0.00 0.00 75 1010.4
20260505092007 14 275 0.0 1.6 0.00 0.00 0.00 75 1010.5
20260505091521 14 275 0.0 1.6 0.00 0.00 0.00 74 1010.4
20260505091008 14 275 0.0 1.6 0.00 0.00 0.00 74 1010.4
20260505090508 14 275 0.0 1.6 0.00 0.00 0.00 74 1010.5
20260505090026 14 275 0.0 1.6 0.00 0.00 0.00 74 1010.4
20260505085507 14 275 0.0 1.6 0.00 0.00 0.00 75 1010.4
20260505085009 14 275 0.0 1.6 0.00 0.00 0.00 75 1010.4
20260505084541 14 275 0.0 1.6 0.00 0.00 0.00 75 1010.4
20260505084003 14 276 0.0 1.6 0.00 0.00 0.00 75 1010.4
20260505083504 13 276 0.0 1.6 0.00 0.00 0.00 75 1010.4
20260505083021 13 275 0.0 1.6 0.00 0.00 0.00 76 1010.5
20260505082507 13 276 0.0 1.6 0.00 0.00 0.00 76 1010.6
20260505082007 13 276 0.0 1.6 0.00 0.00 0.00 75 1010.6
20260505081526 13 276 0.0 1.6 0.00 0.00 0.00 75 1010.6
20260505081009 13 276 0.0 1.6 0.00 0.00 0.00 74 1010.6
20260505080507 13 276 0.0 1.6 0.00 0.00 0.00 74 1010.6
20260505080034 14 276 0.0 1.6 0.00 0.00 0.00 74 1010.6
20260505075514 14 276 0.0 1.6 0.00 0.00 0.00 74 1010.6
20260505075007 14 275 0.0 1.6 0.00 0.00 0.00 74 1010.6
20260505074526 14 275 0.0 1.6 0.00 0.00 0.00 74 1010.4
20260505074007 14 276 0.0 1.6 0.00 0.00 0.00 73 1010.5
20260505073507 14 276 0.0 1.6 0.00 0.00 0.00 73 1010.5
20260505073023 14 276 0.0 1.6 0.00 0.00 0.00 73 1010.4
20260505072503 14 276 0.0 1.6 0.00 0.00 0.00 72 1010.5
20260505072008 14 275 0.0 1.6 0.00 0.00 0.00 72 1010.4
20260505071518 15 275 0.0 1.6 0.00 0.00 0.00 71 1010.5
20260505071008 15 275 0.0 1.6 0.00 0.00 0.00 71 1010.3
20260505070508 15 275 0.0 1.6 0.00 0.00 0.00 70 1010.3
20260505070025 15 275 0.0 1.6 0.00 0.00 0.00 70 1010.3
20260505065508 15 275 0.0 1.6 0.00 0.00 0.00 70 1010.3
20260505065009 15 273 0.0 1.6 0.00 0.00 0.00 70 1010.4
20260505064524 15 273 0.0 1.6 0.00 0.00 0.00 69 1010.5
20260505064011 15 273 0.0 1.6 0.00 0.00 0.00 69 1010.4
20260505063511 15 272 0.0 1.6 0.00 0.00 0.00 68 1010.4
20260505063036 15 271 0.0 1.6 0.00 0.00 0.00 68 1010.4
20260505062511 15 271 0.0 1.6 0.00 0.00 0.00 68 1010.5
20260505062011 15 272 0.0 1.6 0.00 0.00 0.00 68 1010.5
20260505061526 15 272 0.0 1.6 0.00 0.00 0.00 68 1010.6
20260505061008 15 271 0.0 1.6 0.00 0.00 0.00 67 1010.6
20260505060510 15 271 0.0 1.6 0.00 0.00 0.00 68 1010.6
20260505060047 15 271 0.0 1.6 0.00 0.00 0.00 68 1010.6
20260505055509 15 271 0.0 1.6 0.00 0.00 0.00 68 1010.6
20260505055012 14 271 0.0 1.6 0.00 0.00 0.00 69 1010.6
20260505054524 13 271 0.0 1.6 0.00 0.00 0.00 70 1010.6
20260505054017 13 280 0.0 1.6 0.00 0.00 0.00 71 1010.7
20260505053512 13 280 0.0 1.6 0.00 0.00 0.00 71 1010.8
20260505053026 13 280 0.0 1.6 0.00 0.00 0.00 70 1010.8
20260505052511 13 280 0.0 0.0 0.00 0.00 0.00 68 1010.8
20260505052011 14 280 0.0 0.0 0.00 0.00 0.00 67 1010.7
20260505051526 14 280 0.0 1.6 0.00 0.00 0.00 67 1010.8
20260505051007 15 280 0.0 1.6 0.00 0.00 0.00 66 1010.8
20260505050504 15 280 0.0 1.6 0.00 0.00 0.00 65 1010.8
20260505041532 14 257 0.0 1.6 0.00 0.00 0.00 66 1010.9
20260505041012 14 257 0.0 1.6 0.00 0.00 0.00 65 1011.0
20260505040513 15 257 0.0 1.6 0.00 0.00 0.00 65 1010.9
20260505040026 15 257 0.0 1.6 0.00 0.00 0.00 65 1011.0
20260505035509 15 257 0.0 1.6 0.00 0.00 0.00 65 1010.9
20260505035008 15 257 0.0 1.6 0.00 0.00 0.00 64 1011.0
20260505034520 15 257 0.0 1.6 0.00 0.00 0.00 64 1011.0
20260505034013 15 257 0.0 1.6 0.00 0.00 0.00 64 1011.0
20260505033510 15 257 0.0 1.6 0.00 0.00 0.00 64 1011.0
20260505033023 15 257 0.0 3.2 0.00 0.00 0.00 64 1011.0
20260505032510 15 256 0.0 3.2 0.00 0.00 0.00 63 1011.0
20260505032014 15 256 0.0 1.6 0.00 0.00 0.00 63 1011.1
20260505031526 15 256 0.0 1.6 0.00 0.00 0.00 63 1011.0
20260505031009 15 256 0.0 1.6 0.00 0.00 0.00 62 1011.1
20260505030508 15 258 0.0 1.6 0.00 0.00 0.00 62 1011.1
20260505030028 15 259 0.0 1.6 0.00 0.00 0.00 62 1011.2
20260505025511 15 259 0.0 1.6 0.00 0.00 0.00 61 1011.2
20260505025010 15 258 0.0 1.6 0.00 0.00 0.00 61 1011.2
20260505024526 15 258 0.0 1.6 0.00 0.00 0.00 60 1011.2
20260505024009 15 258 0.0 1.6 0.00 0.00 0.00 60 1011.2
20260505023507 15 259 0.0 3.2 0.00 0.00 0.00 59 1011.3
20260505023023 16 259 0.0 3.2 0.00 0.00 0.00 59 1011.3
20260505022509 16 252 0.0 1.6 0.00 0.00 0.00 58 1011.4
20260505022010 16 250 0.0 3.2 0.00 0.00 0.00 58 1011.4
20260505021524 16 252 1.6 3.2 0.00 0.00 0.00 57 1011.4
20260505021010 16 249 1.6 3.2 0.00 0.00 0.00 57 1011.5
20260505020509 16 266 0.0 3.2 0.00 0.00 0.00 56 1011.5
20260505020038 16 261 0.0 3.2 0.00 0.00 0.00 55 1011.5
20260505015508 16 254 0.0 3.2 0.00 0.00 0.00 55 1011.5
20260505015010 16 254 0.0 3.2 0.00 0.00 0.00 55 1011.4
20260505014535 16 254 0.0 3.2 0.00 0.00 0.00 54 1011.4
20260505014009 16 250 1.6 3.2 0.00 0.00 0.00 54 1011.3
20260505013508 16 250 0.0 3.2 0.00 0.00 0.00 53 1011.3
20260505013027 16 252 0.0 3.2 0.00 0.00 0.00 53 1011.3
20260505012510 17 292 0.0 1.6 0.00 0.00 0.00 52 1011.2
20260505012011 17 331 0.0 1.6 0.00 0.00 0.00 52 1011.0
20260505011534 17 254 0.0 1.6 0.00 0.00 0.00 51 1011.0
20260505011002 17 257 0.0 3.2 0.00 0.00 0.00 51 1010.9
20260505010503 17 256 0.0 3.2 0.00 0.00 0.00 50 1010.9
20260505010010 17 255 1.6 3.2 0.00 0.00 0.00 49 1010.9
20260505005503 17 247 1.6 3.2 0.00 0.00 0.00 48 1010.9
20260505005003 17 254 1.6 3.2 0.00 0.00 0.00 47 1010.8
20260505004516 18 256 1.6 3.2 0.00 0.00 0.00 45 1010.7
20260505004006 18 257 1.6 1.6 0.00 0.00 0.00 42 1010.6
20260505003507 18 257 0.0 1.6 0.00 0.00 0.00 42 1010.6
20260505003032 18 257 0.0 1.6 0.00 0.00 0.00 40 1010.5
20260505002509 18 257 0.0 1.6 0.00 0.00 0.00 40 1010.5
20260505002008 19 257 0.0 1.6 0.00 0.00 0.00 40 1010.4
20260505001523 19 257 0.0 1.6 0.00 0.00 0.00 39 1010.4
20260505001008 19 257 0.0 1.6 0.00 0.00 0.00 39 1010.2
20260505000510 19 257 0.0 1.6 0.00 0.00 0.00 38 1010.1
20260505000011 20 257 0.0 1.6 0.00 0.00 0.00 37 1010.0
20260504235503 20 257 0.0 1.6 0.00 0.00 0.00 37 1010.0
20260504235006 20 256 0.0 1.6 0.00 0.00 0.00 36 1009.9
20260504234512 20 257 0.0 3.2 0.00 0.00 0.00 36 1009.9
20260504234007 20 256 1.6 3.2 0.00 0.00 0.00 36 1009.8
20260504233506 20 251 0.0 4.8 0.00 0.00 0.00 35 1009.8
20260504233017 20 265 0.0 4.8 0.00 0.00 0.00 35 1009.7
20260504232510 21 250 1.6 3.2 0.00 0.00 0.00 35 1009.7
20260504232008 21 253 0.0 3.2 0.00 0.00 0.00 35 1009.7
20260504231523 21 244 1.6 3.2 0.00 0.00 0.00 35 1009.7
20260504231007 21 238 1.6 3.2 0.00 0.00 0.00 34 1009.7
20260504230511 21 269 1.6 9.7 0.00 0.00 0.00 34 1009.6
20260504230028 21 269 1.6 9.7 0.00 0.00 0.00 33 1009.6
20260504225509 21 261 1.6 8.0 0.00 0.00 0.00 33 1009.6
20260504225004 21 252 3.2 8.0 0.00 0.00 0.00 33 1009.5
20260504224516 21 229 1.6 8.0 0.00 0.00 0.00 33 1009.6
20260504224004 21 248 3.2 4.8 0.00 0.00 0.00 33 1009.6
20260504223503 22 272 1.6 8.0 0.00 0.00 0.00 33 1009.5
20260504223017 22 255 1.6 8.0 0.00 0.00 0.00 32 1009.5
20260504222508 22 258 1.6 6.4 0.00 0.00 0.00 32 1009.5
20260504222007 22 235 1.6 4.8 0.00 0.00 0.00 32 1009.6
20260504221523 22 257 1.6 4.8 0.00 0.00 0.00 32 1009.7
20260504221009 22 256 0.0 4.8 0.00 0.00 0.00 32 1009.7
20260504220508 22 259 1.6 4.8 0.00 0.00 0.00 31 1009.7
20260504220026 22 267 1.6 4.8 0.00 0.00 0.00 31 1009.7
20260504215509 22 239 1.6 4.8 0.00 0.00 0.00 32 1009.8
20260504215007 22 269 1.6 4.8 0.00 0.00 0.00 32 1009.7
20260504214527 22 214 1.6 8.0 0.00 0.00 0.00 31 1009.7
20260504214013 22 264 4.8 8.0 0.00 0.00 0.00 30 1009.8
20260504213506 22 262 1.6 6.4 0.00 0.00 0.00 31 1009.8
20260504213022 22 262 3.2 6.4 0.00 0.00 0.00 31 1009.9
20260504212503 22 230 1.6 6.4 0.00 0.00 0.00 31 1010.0
20260504212006 22 262 1.6 6.4 0.00 0.00 0.00 30 1009.9
20260504211529 22 246 3.2 8.0 0.00 0.00 0.00 30 1009.9
20260504211007 22 253 3.2 8.0 0.00 0.00 0.00 30 1009.9
20260504210508 22 240 3.2 6.4 0.00 0.00 0.00 31 1009.9
20260504210020 22 250 1.6 6.4 0.00 0.00 0.00 31 1009.9
20260504205508 22 219 3.2 4.8 0.00 0.00 0.00 31 1009.9
20260504205007 22 235 1.6 6.4 0.00 0.00 0.00 31 1009.9
20260504204523 22 264 3.2 6.4 0.00 0.00 0.00 32 1010.0
20260504204007 22 222 3.2 8.0 0.00 0.00 0.00 30 1010.0
20260504203512 22 247 3.2 8.0 0.00 0.00 0.00 30 1010.0
20260504203027 22 253 3.2 4.8 0.00 0.00 0.00 30 1009.8
20260504202504 22 266 1.6 9.7 0.00 0.00 0.00 31 1009.9
20260504202003 22 235 1.6 9.7 0.00 0.00 0.00 31 1010.0
20260504201517 22 237 3.2 12.9 0.00 0.00 0.00 30 1010.1
20260504201006 22 266 3.2 12.9 0.00 0.00 0.00 30 1010.1
20260504200507 22 222 3.2 6.4 0.00 0.00 0.00 31 1010.0
20260504200023 22 238 3.2 8.0 0.00 0.00 0.00 32 1010.0
20260504195506 22 222 3.2 8.0 0.00 0.00 0.00 31 1010.0
20260504195008 22 258 1.6 8.0 0.00 0.00 0.00 33 1010.1
20260504194524 22 231 1.6 8.0 0.00 0.00 0.00 32 1010.2
20260504194009 22 275 1.6 6.4 0.00 0.00 0.00 32 1010.3
20260504193509 21 273 3.2 6.4 0.00 0.00 0.00 32 1010.3
20260504193026 22 250 1.6 8.0 0.00 0.00 0.00 31 1010.3
20260504192513 21 235 3.2 9.7 0.00 0.00 0.00 31 1010.3
20260504192009 21 269 1.6 9.7 0.00 0.00 0.00 32 1010.5
20260504191515 21 253 3.2 6.4 0.00 0.00 0.00 34 1010.5
20260504191008 21 256 1.6 8.0 0.00 0.00 0.00 34 1010.6
20260504190507 21 242 3.2 8.0 0.00 0.00 0.00 34 1010.7
20260504190020 21 254 1.6 11.3 0.00 0.00 0.00 33 1010.8
20260504185507 21 268 3.2 11.3 0.00 0.00 0.00 34 1010.8
20260504185006 21 254 3.2 6.4 0.00 0.00 0.00 35 1010.9
20260504184536 21 254 1.6 9.7 0.00 0.00 0.00 35 1011.0
20260504184008 21 257 3.2 9.7 0.00 0.00 0.00 35 1011.2
20260504183510 21 261 3.2 6.4 0.00 0.00 0.00 35 1011.1
20260504183023 21 214 3.2 9.7 0.00 0.00 0.00 35 1011.1
20260504182507 21 221 1.6 9.7 0.00 0.00 0.00 35 1011.3